Total_Precipitation_Accumulation
1.57 2.03 2.66 3.28 4.05 5.12 5.75 5.81 5.40 4.59 3.96 3.44 3.15 2.80 2.55 2.36 1.96 1.58 1.33 1.16 1.11 1.02 1.09 1.03 1.02 1.01 0.99 1.00 1.13 1.28 1.34 1.18 1.34 1.58 1.48 1.23 0.99 0.93 0.90 0.81 0.83 0.84 0.88
1.43 2.05 2.83 3.60 4.19 4.72 5.05 5.02 4.52 3.70 3.18 2.79 2.68 2.43 2.19 1.87 1.64 1.41 1.28 1.07 0.99 0.92 0.90 0.96 0.86 0.83 0.92 0.90 0.95 1.07 1.09 0.98 1.08 1.28 1.35 1.17 1.11 0.90 0.59 0.64 0.66 0.64 0.80
1.63 2.41 3.22 3.92 4.16 4.14 3.90 3.53 3.24 2.87 2.73 2.59 2.36 2.13 2.03 1.74 1.49 1.23 1.10 0.94 0.82 0.74 0.71 0.71 0.68 0.70 0.70 0.76 0.84 0.91 1.00 0.96 0.88 0.93 1.08 0.99 0.95 0.87 0.66 0.53 0.56 0.67 0.76
1.76 2.49 3.06 3.23 3.30 3.15 2.83 2.61 2.52 2.44 2.32 2.20 2.07 1.73 1.48 1.38 1.22 1.09 1.02 0.92 0.79 0.71 0.67 0.60 0.60 0.61 0.57 0.69 0.63 0.73 0.88 0.93 0.80 0.79 0.79 0.79 0.84 0.85 0.81 0.68 0.57 0.68 0.71
1.33 1.57 1.79 1.91 2.02 1.99 2.05 2.08 2.17 2.24 2.09 2.02 1.96 1.80 1.49 1.42 1.37 1.31 1.28 1.13 0.95 0.81 0.67 0.65 0.65 0.64 0.54 0.58 0.61 0.73 0.80 0.85 0.78 0.74 0.77 0.84 0.84 0.73 0.76 0.78 0.74 0.75 0.63
0.82 0.92 1.01 1.12 1.34 1.36 1.41 1.55 1.63 1.76 1.87 1.85 1.69 1.60 1.47 1.49 1.49 1.39 1.21 1.02 0.93 0.85 0.74 0.72 0.78 0.71 0.66 0.65 0.63 0.68 0.71 0.82 0.88 0.85 0.78 0.81 0.85 0.72 0.70 0.64 0.63 0.72 0.67
0.64 0.80 0.91 1.02 1.20 1.10 1.08 1.18 1.27 1.32 1.43 1.42 1.37 1.36 1.41 1.41 1.30 1.20 1.09 0.93 0.77 0.74 0.76 0.74 0.78 0.75 0.78 0.72 0.73 0.74 0.67 0.74 0.83 0.80 0.78 0.74 0.71 0.76 0.79 0.78 0.70 0.74 0.76
0.54 0.64 0.64 0.74 0.83 0.75 0.81 0.91 1.03 1.10 1.13 1.16 1.19 1.18 1.23 1.16 1.10 1.14 1.07 0.92 0.78 0.73 0.71 0.68 0.68 0.71 0.75 0.75 0.89 0.81 0.79 0.81 0.78 0.74 0.89 0.85 0.72 0.81 0.86 0.94 1.03 0.99 0.99
0.42 0.47 0.37 0.41 0.52 0.62 0.68 0.73 0.88 0.99 0.99 1.05 1.07 1.03 1.07 1.10 1.14 1.13 1.04 0.90 0.88 0.80 0.78 0.75 0.80 0.83 0.85 0.89 0.99 0.93 0.89 0.93 0.83 0.83 0.94 0.94 0.91 0.92 0.88 1.03 1.19 1.29 1.24
0.30 0.31 0.29 0.29 0.36 0.49 0.65 0.73 0.83 0.91 0.94 0.99 0.98 0.82 0.94 1.04 1.17 1.12 1.03 0.93 0.96 0.87 0.89 0.87 0.87 0.93 0.91 0.91 1.01 1.00 1.05 1.09 1.06 1.05 1.07 1.05 1.04 1.12 1.04 1.11 1.22 1.30 1.40
0.31 0.28 0.24 0.24 0.27 0.36 0.52 0.65 0.77 0.84 0.87 0.91 0.98 1.03 1.02 0.93 1.02 1.06 1.04 1.06 1.06 0.97 0.96 0.97 1.02 1.00 1.02 1.07 1.14 1.09 1.15 1.26 1.40 1.39 1.35 1.36 1.39 1.37 1.30 1.33 1.32 1.30 1.42
0.26 0.26 0.28 0.30 0.30 0.30 0.38 0.49 0.60 0.73 0.79 0.87 0.98 1.05 1.10 1.00 0.97 0.99 1.06 1.10 1.15 1.18 1.14 1.08 1.08 1.02 1.04 1.17 1.24 1.27 1.29 1.31 1.34 1.50 1.70 1.69 1.63 1.53 1.39 1.44 1.38 1.35 1.52
0.33 0.30 0.34 0.38 0.41 0.40 0.39 0.47 0.58 0.72 0.84 0.91 0.97 1.03 1.07 1.01 0.99 1.10 1.19 1.20 1.30 1.37 1.37 1.30 1.20 1.13 1.11 1.16 1.22 1.30 1.30 1.33 1.40 1.53 1.64 1.72 1.82 1.68 1.55 1.49 1.44 1.47 1.57
0.37 0.30 0.30 0.32 0.38 0.50 0.54 0.59 0.76 0.77 0.75 0.87 0.95 1.01 1.04 1.05 1.09 1.17 1.27 1.29 1.34 1.44 1.50 1.44 1.38 1.34 1.23 1.14 1.13 1.15 1.20 1.35 1.49 1.53 1.48 1.58 1.83 1.90 1.84 1.67 1.59 1.61 1.69
0.37 0.29 0.27 0.29 0.37 0.49 0.52 0.57 0.68 0.87 0.88 1.00 1.12 1.17 1.25 1.33 1.40 1.46 1.47 1.43 1.42 1.43 1.54 1.61 1.61 1.53 1.34 1.13 1.14 1.23 1.19 1.31 1.38 1.35 1.27 1.26 1.45 1.67 1.78 1.64 1.59 1.62 1.63
0.36 0.37 0.38 0.38 0.41 0.46 0.53 0.59 0.62 0.76 0.93 1.17 1.42 1.46 1.54 1.62 1.71 1.85 1.94 1.84 1.74 1.80 1.88 1.82 1.72 1.61 1.26 1.24 1.18 1.16 1.20 1.27 1.28 1.25 1.22 1.11 1.05 1.10 1.27 1.43 1.56 1.66 1.59
0.51 0.51 0.57 0.55 0.52 0.53 0.57 0.61 0.67 0.80 1.02 1.26 1.51 1.70 1.81 1.88 1.98 2.08 2.10 2.03 2.07 2.14 2.17 2.08 1.90 1.74 1.61 1.47 1.25 1.15 1.11 1.13 1.12 1.15 1.14 0.97 0.88 0.97 0.96 1.11 1.24 1.36 1.43
0.60 0.59 0.69 0.73 0.67 0.65 0.73 0.82 0.95 1.10 1.29 1.46 1.62 1.79 1.82 1.84 1.91 2.00 1.95 1.96 2.06 2.14 2.16 2.10 1.99 1.89 1.76 1.57 1.29 1.21 1.05 1.07 1.09 1.12 1.12 1.08 1.02 0.99 1.02 1.04 1.05 1.06 1.12
0.64 0.68 0.73 0.80 0.81 0.81 0.89 0.95 1.03 1.15 1.32 1.45 1.53 1.58 1.68 1.77 1.82 1.86 1.91 1.96 1.97 1.89 1.81 1.79 1.81 1.80 1.83 1.68 1.36 1.23 1.12 1.21 1.21 1.19 1.19 1.19 1.12 1.19 1.05 0.98 1.00 1.01 1.04
0.60 0.69 0.68 0.70 0.77 0.85 0.89 0.91 1.00 1.14 1.33 1.46 1.47 1.47 1.58 1.68 1.75 1.80 1.86 1.84 1.79 1.75 1.71 1.66 1.68 1.70 1.71 1.64 1.30 1.18 1.12 1.23 1.24 1.27 1.26 1.20 1.08 1.05 0.92 0.86 0.93 0.93 0.94
0.60 0.62 0.68 0.71 0.73 0.80 0.86 0.94 1.05 1.13 1.20 1.29 1.35 1.42 1.57 1.68 1.73 1.79 1.78 1.75 1.71 1.74 1.77 1.70 1.61 1.57 1.57 1.56 1.28 1.14 1.04 1.16 1.29 1.27 1.22 1.19 1.09 0.86 0.79 0.76 0.80 0.84 0.87
0.70 0.72 0.75 0.84 0.88 0.91 0.92 0.99 0.98 0.97 1.04 1.08 1.13 1.17 1.27 1.41 1.47 1.56 1.56 1.59 1.56 1.52 1.51 1.49 1.41 1.37 1.38 1.32 1.22 1.03 0.93 1.00 1.14 1.24 1.25 1.26 1.11 0.85 0.73 0.62 0.59 0.56 0.53
0.86 0.84 0.81 0.84 0.88 0.95 1.01 1.06 1.00 0.93 0.92 0.91 0.91 0.95 1.01 1.19 1.34 1.39 1.38 1.40 1.41 1.38 1.35 1.31 1.26 1.23 1.20 1.15 0.97 0.83 0.74 0.79 0.92 1.10 1.25 1.17 0.98 0.81 0.67 0.59 0.54 0.49 0.45
0.62 0.69 0.74 0.79 0.87 0.84 0.86 0.92 0.92 0.89 0.91 0.94 0.94 0.97 1.04 1.15 1.38 1.48 1.39 1.33 1.31 1.27 1.26 1.21 1.22 1.24 1.27 1.21 1.01 0.80 0.66 0.70 0.83 0.94 1.02 1.04 1.02 0.96 0.88 0.76 0.63 0.53 0.53
0.46 0.50 0.56 0.58 0.62 0.62 0.66 0.70 0.74 0.81 0.84 0.84 0.81 0.81 0.87 1.00 1.22 1.35 1.34 1.20 1.17 1.20 1.23 1.20 1.18 1.12 1.08 1.06 0.95 0.81 0.78 0.82 0.91 0.91 0.98 1.00 1.07 1.10 1.10 1.04 0.93 0.85 0.81
0.41 0.46 0.50 0.52 0.54 0.57 0.65 0.73 0.83 0.90 0.91 0.86 0.79 0.76 0.78 0.88 1.07 1.29 1.36 1.21 1.02 1.03 1.01 0.96 0.93 0.90 0.83 0.78 0.76 0.73 0.72 0.77 0.82 0.79 0.93 1.07 1.17 1.24 1.26 1.24 1.14 1.02 0.93